COSMOS 1137

Satellite information

Favourite Embed

Satellite Type and Status

PAYLOADIN ORBIT

Key statistics

Satellite COSMOS 1137 at a glance.

Uptime

16882

Days in orbit

Revolutions

≈ 12.4

Per day

Orbit

LEO

Low Earth Orbit

Inclination

74.0

Latest

Satellite identification and parameters

Extended collection of information and parameters for COSMOS 1137.

Object identification

Identified? True

Debris? False

Object name: COSMOS 1137

International designator: 1979-084H

Object number (NORAD): 11545

Object ID (CCSDS): 11545

Country: COMMONWEALTH OF INDEPENDENT STATES (CIS)

Current information (Y/N): Y

RCS size: MEDIUM

Orbital parameters

Period: 115.831 minutes

Inclination: 74.0224 deg

SMA: 7871.223 km

Apoapsis: 1513.785 km

Periapsis: 1472.39 km

RAAN: 138.3819 deg

Eccentricy: 0.00262948

Argument of periapsis: 28.3739 deg

Mean anomaly: 144.74 deg

Mean motion: 12.43195622 rev/day

Mean motion (dot): 0.00000004 rev/day2

B* drag term: 0.00013934197 1/REarth

Two-line elements (TLE)

Creation date: Dec. 12, 2025, 10:14 a.m.

Reference frame: TEME

Reference center: EARTH

Epoch: Dec. 12, 2025, 4:25 a.m. UTC

TLE line 0: 0 COSMOS 1137

TLE line 1: 1 11545U 79084H 25346.18444899 .00000004 00000-0 13934-3 0 9998

TLE line 2: 2 11545 74.0224 138.3819 0026295 28.3739 144.7400 12.43195622 97287

Live tracking on map

Real-time ground track for satellite COSMOS 1137.

In-orbit conjunctions

A list of the most updated potential collisions computed for object COSMOS 1137.

Target Orbit TCA Probability of collision Miss distance Type
DELTA 1 DEB MEO 2025-07-08 15:21:13 0.0001262005 334.0 (m) DEBRIS
COSMOS 450 LEO 2025-04-21 22:28:18 0.0005725593 133.0 (m) PAYLOAD

Associated space launch

Biological research satellite carrying live organisms

COSMOS 1137 was lifted into orbit during the mission ‘Soyuz U | Bion 5’, on board a Soyuz U space rocket.

The launch took place on Sept. 25, 1979, 3:30 p.m. from 41/1.

For more information about the launch, click the button.

Launch to space Soyuz U | Bion 5
Soyuz U | Bion 5

Agency: N/A

Status: Launch Successful

Launch date: Sept. 25, 1979, 3:30 p.m. UTC

Rocket: Soyuz U

Launch pad: 41/1

Location: Plesetsk Cosmodrome, Russian Federation

...

Latest news about this satellite

There are no fresh news available about this satellite. Check back as we update our databases every day.


Newsletter sign-up

Weekly statistics, charts and insights to help you stay on top of the space industry.